Cozumel (Civ/Mil, Mexico

11:34 AM on February 27, 2017 (GMT +0000)
Cozumel International

Weather History for MMCZ - November, 2012

Change the Weather History Date:

Sunday, November 11, 2012

  Actual Average Record
Temperature  
Mean Temperature 70 °F -  
Max Temperature 80 °F 84 °F 89 °F (2006)
Min Temperature 60 °F 74 °F 57 °F (2014)
Cooling Degree Days 5    
Growing Degree Days 20 (Base 50)    
Moisture  
Dew Point 65 °F    
Average Humidity 78    
Maximum Humidity 100    
Minimum Humidity 61    
Precipitation  
Precipitation 0.00 in - - ()
Sea Level Pressure  
Sea Level Pressure 30.04 in    
Wind  
Wind Speed 5 mph ()    
Max Wind Speed 14 mph    
Max Gust Speed 23 mph    
Visibility 8.2 miles    
Events      
Averages and records for this station are not official NWS values.
T = Trace of Precipitation, MM = Missing Value Source: Averaged Metar Reports

Daily Weather History Graph

Daily Weather History Graph

Search for Another Location

Airport or City:

Trip Planner

Search our weather history database for the weather conditions in past years. The results will help you decide how hot, cold, wet, or windy it might be!

Date:

Astronomy

Nov. 11, 2012 Rise Set
Actual Time 5:55 AM CST 5:08 PM CST
Civil Twilight 5:32 AM CST 5:31 PM CST
Nautical Twilight 5:05 AM CST 5:57 PM CST
Astronomical Twilight 4:39 AM CST 6:24 PM CST
Moon 3:24 AM CST (11/11) 3:19 PM CST (11/11)
Length of Visible Light 11h 59m
Length of Day
11h 12m
Waning Crescent, 7% of the Moon is Illuminated
Nov 11
Waning Crescent
Nov 13
New
Nov 20
First Quarter
Nov 28
Full
Dec 6
Last Quarter

Hourly Weather History & Observations

Time (CST) Temp. Heat Index Dew Point Humidity Pressure Visibility Wind Dir Wind Speed Gust Speed Precip Events Conditions
12:40 AM 68.0 °F - 64.4 °F 88% 30.06 in 7.0 mi Calm Calm - N/A   Clear
1:55 AM 66.2 °F - 62.6 °F 88% 30.03 in 7.0 mi ENE 4.6 mph - N/A   Clear
2:40 AM 66.2 °F - 62.6 °F 88% 30.05 in 7.0 mi ENE 4.6 mph - N/A   Clear
3:41 AM 66.2 °F - 60.8 °F 83% 30.02 in 7.0 mi Calm Calm - N/A   Clear
4:43 AM 60.8 °F - 60.8 °F 100% 30.02 in 7.0 mi Calm Calm - N/A   Clear
5:40 AM 62.6 °F - 60.8 °F 94% 30.01 in 7.0 mi ESE 4.6 mph - N/A   Clear
6:42 AM 62.6 °F - 60.8 °F 94% 30.05 in 7.0 mi East 4.6 mph - N/A   Clear
7:45 AM 71.6 °F - 66.2 °F 83% 30.06 in 8.0 mi East 5.8 mph - N/A   Clear
8:40 AM 77.0 °F - 66.2 °F 69% 30.11 in 8.0 mi East 13.8 mph - N/A   Clear
9:41 AM 78.8 °F - 66.2 °F 65% 30.08 in 8.0 mi East 11.5 mph 23.0 mph N/A   Partly Cloudy
10:42 AM 80.6 °F 82.7 °F 66.2 °F 61% 30.07 in 10.0 mi East 13.8 mph - N/A   Clear
11:46 AM 80.6 °F 82.7 °F 66.2 °F 61% 30.02 in 10.0 mi ENE 13.8 mph - N/A   Scattered Clouds
12:45 PM 80.6 °F 82.7 °F 66.2 °F 61% 30.02 in 10.0 mi ENE 13.8 mph - N/A   Mostly Cloudy
1:42 PM 78.8 °F - 66.2 °F 65% 30.01 in 10.0 mi ENE 13.8 mph - N/A   Mostly Cloudy
2:48 PM 77.0 °F - 66.2 °F 69% 30.03 in 10.0 mi East 11.5 mph - N/A   Mostly Cloudy
3:48 PM 77.0 °F - 66.2 °F 69% 30.01 in 10.0 mi East 10.4 mph - N/A   Mostly Cloudy
4:45 PM 75.2 °F - 66.2 °F 73% 30.02 in 10.0 mi East 5.8 mph - N/A   Scattered Clouds
5:46 PM 71.6 °F - 64.4 °F 78% 29.99 in 8.0 mi East 5.8 mph - N/A   Scattered Clouds
6:47 PM 71.6 °F - 66.2 °F 83% 30.05 in 8.0 mi ENE 9.2 mph - N/A   Scattered Clouds
7:49 PM 73.4 °F - 66.2 °F 78% 30.07 in 8.0 mi East 5.8 mph - N/A   Partly Cloudy
8:44 PM 71.6 °F - 66.2 °F 83% 30.11 in 8.0 mi East 5.8 mph - N/A   Partly Cloudy
9:46 PM 71.6 °F - 66.2 °F 83% 30.08 in 7.0 mi East 5.8 mph - N/A   Partly Cloudy
10:46 PM 71.6 °F - 66.2 °F 83% 30.07 in 7.0 mi East 4.6 mph - N/A   Scattered Clouds
11:45 PM 71.6 °F - 66.2 °F 83% 30.02 in 7.0 mi East 5.8 mph - N/A   Scattered Clouds